owner,sensor,date,latitude,longitude,vertical_datum,sea_water_temperature,qcFlag 
DISL,ioos:station:DISL:MHPA:1,2016-11-01T00:00:00Z,30.6671,-87.9365,-0.9,25.04,2 
DISL,ioos:station:DISL:MHPA:1,2016-11-01T00:30:00Z,30.6671,-87.9365,-0.9,25.02,2 
DISL,ioos:station:DISL:MHPA:1,2016-11-01T01:00:00Z,30.6671,-87.9365,-0.9,24.92,2 
DISL,ioos:station:DISL:MHPA:1,2016-11-01T01:30:00Z,30.6671,-87.9365,-0.9,24.84,2 
DISL,ioos:station:DISL:MHPA:1,2016-11-01T02:00:00Z,30.6671,-87.9365,-0.9,24.87,2 
DISL,ioos:station:DISL:MHPA:1,2016-11-01T02:30:00Z,30.6671,-87.9365,-0.9,24.8,2 
DISL,ioos:station:DISL:MHPA:1,2016-11-01T03:00:00Z,30.6671,-87.9365,-0.9,24.69,2 
DISL,ioos:station:DISL:MHPA:1,2016-11-01T03:30:00Z,30.6671,-87.9365,-0.9,24.53,2 
DISL,ioos:station:DISL:MHPA:1,2016-11-01T04:00:00Z,30.6671,-87.9365,-0.9,24.54,2 
DISL,ioos:station:DISL:MHPA:1,2016-11-01T04:30:00Z,30.6671,-87.9365,-0.9,24.54,2 
DISL,ioos:station:DISL:MHPA:1,2016-11-01T05:00:00Z,30.6671,-87.9365,-0.9,25.43,2 
DISL,ioos:station:DISL:MHPA:1,2016-11-01T05:30:00Z,30.6671,-87.9365,-0.9,24.99,2 
DISL,ioos:station:DISL:MHPA:1,2016-11-01T06:00:00Z,30.6671,-87.9365,-0.9,25.36,2 
DISL,ioos:station:DISL:MHPA:1,2016-11-01T06:30:00Z,30.6671,-87.9365,-0.9,25.24,2 
DISL,ioos:station:DISL:MHPA:1,2016-11-01T07:00:00Z,30.6671,-87.9365,-0.9,24.97,2 
DISL,ioos:station:DISL:MHPA:1,2016-11-01T07:30:00Z,30.6671,-87.9365,-0.9,24.78,2 
DISL,ioos:station:DISL:MHPA:1,2016-11-01T08:00:00Z,30.6671,-87.9365,-0.9,24.84,2 
DISL,ioos:station:DISL:MHPA:1,2016-11-01T08:30:00Z,30.6671,-87.9365,-0.9,24.77,2 
DISL,ioos:station:DISL:MHPA:1,2016-11-01T09:00:00Z,30.6671,-87.9365,-0.9,24.61,2 
DISL,ioos:station:DISL:MHPA:1,2016-11-01T09:30:00Z,30.6671,-87.9365,-0.9,24.64,2 
DISL,ioos:station:DISL:MHPA:1,2016-11-01T10:00:00Z,30.6671,-87.9365,-0.9,24.64,2 
DISL,ioos:station:DISL:MHPA:1,2016-11-01T10:30:00Z,30.6671,-87.9365,-0.9,24.8,2 
DISL,ioos:station:DISL:MHPA:1,2016-11-01T11:00:00Z,30.6671,-87.9365,-0.9,24.68,2 
DISL,ioos:station:DISL:MHPA:1,2016-11-01T11:30:00Z,30.6671,-87.9365,-0.9,24.47,2 
DISL,ioos:station:DISL:MHPA:1,2016-11-01T12:00:00Z,30.6671,-87.9365,-0.9,24.42,2 
DISL,ioos:station:DISL:MHPA:1,2016-11-01T12:30:00Z,30.6671,-87.9365,-0.9,24.43,2 
DISL,ioos:station:DISL:MHPA:1,2016-11-01T13:00:00Z,30.6671,-87.9365,-0.9,24.25,2 
DISL,ioos:station:DISL:MHPA:1,2016-11-01T13:30:00Z,30.6671,-87.9365,-0.9,24.05,2 
DISL,ioos:station:DISL:MHPA:1,2016-11-01T14:00:00Z,30.6671,-87.9365,-0.9,23.93,2 
DISL,ioos:station:DISL:MHPA:1,2016-11-01T14:30:00Z,30.6671,-87.9365,-0.9,24.08,2 
DISL,ioos:station:DISL:MHPA:1,2016-11-01T15:00:00Z,30.6671,-87.9365,-0.9,24.19,2 
DISL,ioos:station:DISL:MHPA:1,2016-11-01T15:30:00Z,30.6671,-87.9365,-0.9,24.26,2 
DISL,ioos:station:DISL:MHPA:1,2016-11-01T16:00:00Z,30.6671,-87.9365,-0.9,24.37,2 
DISL,ioos:station:DISL:MHPA:1,2016-11-01T16:30:00Z,30.6671,-87.9365,-0.9,24.42,2 
DISL,ioos:station:DISL:MHPA:1,2016-11-01T17:00:00Z,30.6671,-87.9365,-0.9,24.54,2 
DISL,ioos:station:DISL:MHPA:1,2016-11-01T17:30:00Z,30.6671,-87.9365,-0.9,24.85,2 
DISL,ioos:station:DISL:MHPA:1,2016-11-01T18:00:00Z,30.6671,-87.9365,-0.9,25.12,2 
DISL,ioos:station:DISL:MHPA:1,2016-11-01T18:30:00Z,30.6671,-87.9365,-0.9,25.22,2 
DISL,ioos:station:DISL:MHPA:1,2016-11-01T19:00:00Z,30.6671,-87.9365,-0.9,25.22,2 
DISL,ioos:station:DISL:MHPA:1,2016-11-01T19:30:00Z,30.6671,-87.9365,-0.9,25.3,2 
DISL,ioos:station:DISL:MHPA:1,2016-11-01T20:00:00Z,30.6671,-87.9365,-0.9,25.41,2 
DISL,ioos:station:DISL:MHPA:1,2016-11-01T20:30:00Z,30.6671,-87.9365,-0.9,25.35,2 
DISL,ioos:station:DISL:MHPA:1,2016-11-01T21:00:00Z,30.6671,-87.9365,-0.9,25.44,2 
DISL,ioos:station:DISL:MHPA:1,2016-11-01T21:30:00Z,30.6671,-87.9365,-0.9,25.46,2 
DISL,ioos:station:DISL:MHPA:1,2016-11-01T22:00:00Z,30.6671,-87.9365,-0.9,25.45,2 
DISL,ioos:station:DISL:MHPA:1,2016-11-01T22:30:00Z,30.6671,-87.9365,-0.9,25.46,2 
DISL,ioos:station:DISL:MHPA:1,2016-11-01T23:00:00Z,30.6671,-87.9365,-0.9,25.54,2 
DISL,ioos:station:DISL:MHPA:1,2016-11-01T23:30:00Z,30.6671,-87.9365,-0.9,25.52,2 
DISL,ioos:station:DISL:MHPA:1,2016-11-02T00:00:00Z,30.6671,-87.9365,-0.9,25.48,2 
DISL,ioos:station:DISL:MHPA:1,2016-11-02T00:30:00Z,30.6671,-87.9365,-0.9,25.13,2 
DISL,ioos:station:DISL:MHPA:1,2016-11-02T01:00:00Z,30.6671,-87.9365,-0.9,25.12,2 
DISL,ioos:station:DISL:MHPA:1,2016-11-02T01:30:00Z,30.6671,-87.9365,-0.9,24.97,2 
DISL,ioos:station:DISL:MHPA:1,2016-11-02T02:00:00Z,30.6671,-87.9365,-0.9,24.96,2 
DISL,ioos:station:DISL:MHPA:1,2016-11-02T02:30:00Z,30.6671,-87.9365,-0.9,24.98,2 
DISL,ioos:station:DISL:MHPA:1,2016-11-02T03:00:00Z,30.6671,-87.9365,-0.9,24.97,2 
DISL,ioos:station:DISL:MHPA:1,2016-11-02T03:30:00Z,30.6671,-87.9365,-0.9,24.94,2 
DISL,ioos:station:DISL:MHPA:1,2016-11-02T04:00:00Z,30.6671,-87.9365,-0.9,24.85,2 
DISL,ioos:station:DISL:MHPA:1,2016-11-02T04:30:00Z,30.6671,-87.9365,-0.9,24.87,2 
DISL,ioos:station:DISL:MHPA:1,2016-11-02T05:00:00Z,30.6671,-87.9365,-0.9,24.6,2 
DISL,ioos:station:DISL:MHPA:1,2016-11-02T05:30:00Z,30.6671,-87.9365,-0.9,24.98,2 
DISL,ioos:station:DISL:MHPA:1,2016-11-02T06:00:00Z,30.6671,-87.9365,-0.9,25.14,2 
DISL,ioos:station:DISL:MHPA:1,2016-11-02T07:00:00Z,30.6671,-87.9365,-0.9,24.83,2 
DISL,ioos:station:DISL:MHPA:1,2016-11-02T07:30:00Z,30.6671,-87.9365,-0.9,24.47,2 
DISL,ioos:station:DISL:MHPA:1,2016-11-02T08:00:00Z,30.6671,-87.9365,-0.9,24.46,2 
DISL,ioos:station:DISL:MHPA:1,2016-11-02T08:30:00Z,30.6671,-87.9365,-0.9,24.96,2 
DISL,ioos:station:DISL:MHPA:1,2016-11-02T09:00:00Z,30.6671,-87.9365,-0.9,25.12,2 
DISL,ioos:station:DISL:MHPA:1,2016-11-02T09:30:00Z,30.6671,-87.9365,-0.9,25.03,2 
DISL,ioos:station:DISL:MHPA:1,2016-11-02T10:00:00Z,30.6671,-87.9365,-0.9,25.0,2 
DISL,ioos:station:DISL:MHPA:1,2016-11-02T10:30:00Z,30.6671,-87.9365,-0.9,24.72,2 
DISL,ioos:station:DISL:MHPA:1,2016-11-02T11:00:00Z,30.6671,-87.9365,-0.9,24.75,2 
DISL,ioos:station:DISL:MHPA:1,2016-11-02T11:30:00Z,30.6671,-87.9365,-0.9,24.55,2 
DISL,ioos:station:DISL:MHPA:1,2016-11-02T12:00:00Z,30.6671,-87.9365,-0.9,24.53,2 
DISL,ioos:station:DISL:MHPA:1,2016-11-02T12:30:00Z,30.6671,-87.9365,-0.9,24.52,2 
DISL,ioos:station:DISL:MHPA:1,2016-11-02T13:00:00Z,30.6671,-87.9365,-0.9,24.39,2 
DISL,ioos:station:DISL:MHPA:1,2016-11-02T13:30:00Z,30.6671,-87.9365,-0.9,24.47,2 
DISL,ioos:station:DISL:MHPA:1,2016-11-02T14:00:00Z,30.6671,-87.9365,-0.9,24.38,2 
DISL,ioos:station:DISL:MHPA:1,2016-11-02T14:30:00Z,30.6671,-87.9365,-0.9,24.33,2 
DISL,ioos:station:DISL:MHPA:1,2016-11-02T15:00:00Z,30.6671,-87.9365,-0.9,24.26,2 
DISL,ioos:station:DISL:MHPA:1,2016-11-02T15:30:00Z,30.6671,-87.9365,-0.9,24.25,2 
DISL,ioos:station:DISL:MHPA:1,2016-11-02T16:00:00Z,30.6671,-87.9365,-0.9,24.36,2 
DISL,ioos:station:DISL:MHPA:1,2016-11-02T16:30:00Z,30.6671,-87.9365,-0.9,24.46,2 
DISL,ioos:station:DISL:MHPA:1,2016-11-02T17:00:00Z,30.6671,-87.9365,-0.9,24.55,2 
DISL,ioos:station:DISL:MHPA:1,2016-11-02T17:30:00Z,30.6671,-87.9365,-0.9,24.67,2 
DISL,ioos:station:DISL:MHPA:1,2016-11-02T18:00:00Z,30.6671,-87.9365,-0.9,24.88,2 
DISL,ioos:station:DISL:MHPA:1,2016-11-02T18:30:00Z,30.6671,-87.9365,-0.9,25.03,2 
DISL,ioos:station:DISL:MHPA:1,2016-11-02T19:00:00Z,30.6671,-87.9365,-0.9,25.17,2 
DISL,ioos:station:DISL:MHPA:1,2016-11-02T19:30:00Z,30.6671,-87.9365,-0.9,25.2,2 
DISL,ioos:station:DISL:MHPA:1,2016-11-02T20:00:00Z,30.6671,-87.9365,-0.9,25.2,2 
DISL,ioos:station:DISL:MHPA:1,2016-11-02T20:30:00Z,30.6671,-87.9365,-0.9,25.27,2 
DISL,ioos:station:DISL:MHPA:1,2016-11-02T21:00:00Z,30.6671,-87.9365,-0.9,25.29,2 
DISL,ioos:station:DISL:MHPA:1,2016-11-02T21:30:00Z,30.6671,-87.9365,-0.9,25.29,2 
DISL,ioos:station:DISL:MHPA:1,2016-11-02T22:00:00Z,30.6671,-87.9365,-0.9,25.3,2 
DISL,ioos:station:DISL:MHPA:1,2016-11-02T22:30:00Z,30.6671,-87.9365,-0.9,25.29,2 
DISL,ioos:station:DISL:MHPA:1,2016-11-02T23:00:00Z,30.6671,-87.9365,-0.9,25.2,2 
DISL,ioos:station:DISL:MHPA:1,2016-11-02T23:30:00Z,30.6671,-87.9365,-0.9,25.21,2 
DISL,ioos:station:DISL:MHPA:1,2016-11-03T00:00:00Z,30.6671,-87.9365,-0.9,25.02,2 
DISL,ioos:station:DISL:MHPA:1,2016-11-03T00:30:00Z,30.6671,-87.9365,-0.9,24.95,2 
DISL,ioos:station:DISL:MHPA:1,2016-11-03T01:00:00Z,30.6671,-87.9365,-0.9,24.94,2 
DISL,ioos:station:DISL:MHPA:1,2016-11-03T01:30:00Z,30.6671,-87.9365,-0.9,24.93,2 
DISL,ioos:station:DISL:MHPA:1,2016-11-03T02:00:00Z,30.6671,-87.9365,-0.9,25.0,2 
DISL,ioos:station:DISL:MHPA:1,2016-11-03T02:30:00Z,30.6671,-87.9365,-0.9,24.97,2 
DISL,ioos:station:DISL:MHPA:1,2016-11-03T03:00:00Z,30.6671,-87.9365,-0.9,24.97,2 
DISL,ioos:station:DISL:MHPA:1,2016-11-03T03:30:00Z,30.6671,-87.9365,-0.9,24.92,2 
DISL,ioos:station:DISL:MHPA:1,2016-11-03T04:00:00Z,30.6671,-87.9365,-0.9,24.84,2 
DISL,ioos:station:DISL:MHPA:1,2016-11-03T04:30:00Z,30.6671,-87.9365,-0.9,24.78,2 
DISL,ioos:station:DISL:MHPA:1,2016-11-03T05:00:00Z,30.6671,-87.9365,-0.9,24.8,2 
DISL,ioos:station:DISL:MHPA:1,2016-11-03T05:30:00Z,30.6671,-87.9365,-0.9,24.82,2 
DISL,ioos:station:DISL:MHPA:1,2016-11-03T06:00:00Z,30.6671,-87.9365,-0.9,24.83,2 
DISL,ioos:station:DISL:MHPA:1,2016-11-03T06:30:00Z,30.6671,-87.9365,-0.9,24.88,2 
DISL,ioos:station:DISL:MHPA:1,2016-11-03T07:00:00Z,30.6671,-87.9365,-0.9,24.87,2 
DISL,ioos:station:DISL:MHPA:1,2016-11-03T07:30:00Z,30.6671,-87.9365,-0.9,24.74,2 
DISL,ioos:station:DISL:MHPA:1,2016-11-03T08:00:00Z,30.6671,-87.9365,-0.9,24.74,2 
DISL,ioos:station:DISL:MHPA:1,2016-11-03T08:30:00Z,30.6671,-87.9365,-0.9,24.67,2 
DISL,ioos:station:DISL:MHPA:1,2016-11-03T09:00:00Z,30.6671,-87.9365,-0.9,24.62,2 
DISL,ioos:station:DISL:MHPA:1,2016-11-03T09:30:00Z,30.6671,-87.9365,-0.9,24.55,2 
DISL,ioos:station:DISL:MHPA:1,2016-11-03T10:00:00Z,30.6671,-87.9365,-0.9,24.58,2 
DISL,ioos:station:DISL:MHPA:1,2016-11-03T10:30:00Z,30.6671,-87.9365,-0.9,24.65,2 
DISL,ioos:station:DISL:MHPA:1,2016-11-03T11:00:00Z,30.6671,-87.9365,-0.9,24.33,2 
DISL,ioos:station:DISL:MHPA:1,2016-11-03T11:30:00Z,30.6671,-87.9365,-0.9,24.37,2 
DISL,ioos:station:DISL:MHPA:1,2016-11-03T12:00:00Z,30.6671,-87.9365,-0.9,24.45,2 
DISL,ioos:station:DISL:MHPA:1,2016-11-03T12:30:00Z,30.6671,-87.9365,-0.9,24.49,2 
DISL,ioos:station:DISL:MHPA:1,2016-11-03T13:00:00Z,30.6671,-87.9365,-0.9,24.37,2 
DISL,ioos:station:DISL:MHPA:1,2016-11-03T13:30:00Z,30.6671,-87.9365,-0.9,24.29,2 
DISL,ioos:station:DISL:MHPA:1,2016-11-03T14:00:00Z,30.6671,-87.9365,-0.9,24.24,2 
DISL,ioos:station:DISL:MHPA:1,2016-11-03T14:30:00Z,30.6671,-87.9365,-0.9,24.19,2 
DISL,ioos:station:DISL:MHPA:1,2016-11-03T15:00:00Z,30.6671,-87.9365,-0.9,24.13,2 
DISL,ioos:station:DISL:MHPA:1,2016-11-03T15:30:00Z,30.6671,-87.9365,-0.9,24.18,2 
DISL,ioos:station:DISL:MHPA:1,2016-11-03T16:00:00Z,30.6671,-87.9365,-0.9,24.21,2 
DISL,ioos:station:DISL:MHPA:1,2016-11-03T16:30:00Z,30.6671,-87.9365,-0.9,24.2,2 
DISL,ioos:station:DISL:MHPA:1,2016-11-03T17:00:00Z,30.6671,-87.9365,-0.9,24.36,2 
DISL,ioos:station:DISL:MHPA:1,2016-11-03T17:30:00Z,30.6671,-87.9365,-0.9,24.54,2 
DISL,ioos:station:DISL:MHPA:1,2016-11-03T18:00:00Z,30.6671,-87.9365,-0.9,24.89,2 
DISL,ioos:station:DISL:MHPA:1,2016-11-03T18:30:00Z,30.6671,-87.9365,-0.9,25.12,2 
DISL,ioos:station:DISL:MHPA:1,2016-11-03T19:00:00Z,30.6671,-87.9365,-0.9,25.31,2 
DISL,ioos:station:DISL:MHPA:1,2016-11-03T19:30:00Z,30.6671,-87.9365,-0.9,25.32,2 
DISL,ioos:station:DISL:MHPA:1,2016-11-03T20:00:00Z,30.6671,-87.9365,-0.9,25.48,2 
DISL,ioos:station:DISL:MHPA:1,2016-11-03T20:30:00Z,30.6671,-87.9365,-0.9,25.54,2 
DISL,ioos:station:DISL:MHPA:1,2016-11-03T21:00:00Z,30.6671,-87.9365,-0.9,25.62,2 
DISL,ioos:station:DISL:MHPA:1,2016-11-03T21:30:00Z,30.6671,-87.9365,-0.9,25.63,2 
DISL,ioos:station:DISL:MHPA:1,2016-11-03T22:00:00Z,30.6671,-87.9365,-0.9,25.73,2 
DISL,ioos:station:DISL:MHPA:1,2016-11-03T22:30:00Z,30.6671,-87.9365,-0.9,25.63,2 
DISL,ioos:station:DISL:MHPA:1,2016-11-03T23:00:00Z,30.6671,-87.9365,-0.9,25.77,2 
DISL,ioos:station:DISL:MHPA:1,2016-11-03T23:30:00Z,30.6671,-87.9365,-0.9,25.87,2 
DISL,ioos:station:DISL:MHPA:1,2016-11-04T00:00:00Z,30.6671,-87.9365,-0.9,25.96,2 
DISL,ioos:station:DISL:MHPA:1,2016-11-04T00:30:00Z,30.6671,-87.9365,-0.9,25.96,2 
DISL,ioos:station:DISL:MHPA:1,2016-11-04T01:00:00Z,30.6671,-87.9365,-0.9,25.91,2 
DISL,ioos:station:DISL:MHPA:1,2016-11-04T01:30:00Z,30.6671,-87.9365,-0.9,25.82,2 
DISL,ioos:station:DISL:MHPA:1,2016-11-04T02:00:00Z,30.6671,-87.9365,-0.9,25.74,2 
DISL,ioos:station:DISL:MHPA:1,2016-11-04T02:30:00Z,30.6671,-87.9365,-0.9,25.68,2 
DISL,ioos:station:DISL:MHPA:1,2016-11-04T03:00:00Z,30.6671,-87.9365,-0.9,25.62,2 
DISL,ioos:station:DISL:MHPA:1,2016-11-04T03:30:00Z,30.6671,-87.9365,-0.9,25.44,2 
DISL,ioos:station:DISL:MHPA:1,2016-11-04T04:00:00Z,30.6671,-87.9365,-0.9,25.47,2 
DISL,ioos:station:DISL:MHPA:1,2016-11-04T04:30:00Z,30.6671,-87.9365,-0.9,25.44,2 
DISL,ioos:station:DISL:MHPA:1,2016-11-04T05:00:00Z,30.6671,-87.9365,-0.9,25.25,2 
DISL,ioos:station:DISL:MHPA:1,2016-11-04T05:30:00Z,30.6671,-87.9365,-0.9,25.2,2 
DISL,ioos:station:DISL:MHPA:1,2016-11-04T06:00:00Z,30.6671,-87.9365,-0.9,25.17,2 
DISL,ioos:station:DISL:MHPA:1,2016-11-04T06:30:00Z,30.6671,-87.9365,-0.9,25.29,2 
DISL,ioos:station:DISL:MHPA:1,2016-11-04T07:00:00Z,30.6671,-87.9365,-0.9,25.26,2 
DISL,ioos:station:DISL:MHPA:1,2016-11-04T07:30:00Z,30.6671,-87.9365,-0.9,25.19,2 
DISL,ioos:station:DISL:MHPA:1,2016-11-04T08:00:00Z,30.6671,-87.9365,-0.9,25.24,2 
DISL,ioos:station:DISL:MHPA:1,2016-11-04T08:30:00Z,30.6671,-87.9365,-0.9,25.27,2 
DISL,ioos:station:DISL:MHPA:1,2016-11-04T09:00:00Z,30.6671,-87.9365,-0.9,25.25,2 
DISL,ioos:station:DISL:MHPA:1,2016-11-04T09:30:00Z,30.6671,-87.9365,-0.9,25.28,2 
DISL,ioos:station:DISL:MHPA:1,2016-11-04T10:00:00Z,30.6671,-87.9365,-0.9,25.27,2 
DISL,ioos:station:DISL:MHPA:1,2016-11-04T10:30:00Z,30.6671,-87.9365,-0.9,25.19,2 
DISL,ioos:station:DISL:MHPA:1,2016-11-04T11:00:00Z,30.6671,-87.9365,-0.9,24.96,2 
DISL,ioos:station:DISL:MHPA:1,2016-11-04T11:30:00Z,30.6671,-87.9365,-0.9,24.96,2 
DISL,ioos:station:DISL:MHPA:1,2016-11-04T12:00:00Z,30.6671,-87.9365,-0.9,24.97,2 
DISL,ioos:station:DISL:MHPA:1,2016-11-04T12:30:00Z,30.6671,-87.9365,-0.9,24.94,2 
DISL,ioos:station:DISL:MHPA:1,2016-11-04T13:00:00Z,30.6671,-87.9365,-0.9,24.8,2 
DISL,ioos:station:DISL:MHPA:1,2016-11-04T13:30:00Z,30.6671,-87.9365,-0.9,24.72,2 
DISL,ioos:station:DISL:MHPA:1,2016-11-04T14:00:00Z,30.6671,-87.9365,-0.9,24.69,2 
DISL,ioos:station:DISL:MHPA:1,2016-11-04T14:30:00Z,30.6671,-87.9365,-0.9,24.64,2 
DISL,ioos:station:DISL:MHPA:1,2016-11-04T15:00:00Z,30.6671,-87.9365,-0.9,24.71,2 
DISL,ioos:station:DISL:MHPA:1,2016-11-04T15:30:00Z,30.6671,-87.9365,-0.9,24.72,2 
DISL,ioos:station:DISL:MHPA:1,2016-11-04T16:00:00Z,30.6671,-87.9365,-0.9,24.81,2 
DISL,ioos:station:DISL:MHPA:1,2016-11-04T16:30:00Z,30.6671,-87.9365,-0.9,24.9,2 
DISL,ioos:station:DISL:MHPA:1,2016-11-04T17:00:00Z,30.6671,-87.9365,-0.9,24.89,2 
DISL,ioos:station:DISL:MHPA:1,2016-11-04T17:30:00Z,30.6671,-87.9365,-0.9,24.92,2 
DISL,ioos:station:DISL:MHPA:1,2016-11-04T18:00:00Z,30.6671,-87.9365,-0.9,24.88,2 
DISL,ioos:station:DISL:MHPA:1,2016-11-04T18:30:00Z,30.6671,-87.9365,-0.9,25.21,2 
DISL,ioos:station:DISL:MHPA:1,2016-11-04T19:00:00Z,30.6671,-87.9365,-0.9,25.54,2 
DISL,ioos:station:DISL:MHPA:1,2016-11-04T19:30:00Z,30.6671,-87.9365,-0.9,25.72,2 
DISL,ioos:station:DISL:MHPA:1,2016-11-04T20:00:00Z,30.6671,-87.9365,-0.9,25.61,2 
DISL,ioos:station:DISL:MHPA:1,2016-11-04T20:30:00Z,30.6671,-87.9365,-0.9,25.41,2 
DISL,ioos:station:DISL:MHPA:1,2016-11-04T21:00:00Z,30.6671,-87.9365,-0.9,25.54,2 
DISL,ioos:station:DISL:MHPA:1,2016-11-04T21:30:00Z,30.6671,-87.9365,-0.9,25.63,2 
DISL,ioos:station:DISL:MHPA:1,2016-11-04T22:00:00Z,30.6671,-87.9365,-0.9,25.61,2 
DISL,ioos:station:DISL:MHPA:1,2016-11-04T22:30:00Z,30.6671,-87.9365,-0.9,25.73,2 
DISL,ioos:station:DISL:MHPA:1,2016-11-04T23:00:00Z,30.6671,-87.9365,-0.9,25.67,2 
DISL,ioos:station:DISL:MHPA:1,2016-11-04T23:30:00Z,30.6671,-87.9365,-0.9,25.7,2 
DISL,ioos:station:DISL:MHPA:1,2016-11-05T00:00:00Z,30.6671,-87.9365,-0.9,25.64,2 
DISL,ioos:station:DISL:MHPA:1,2016-11-05T00:30:00Z,30.6671,-87.9365,-0.9,25.6,2 
DISL,ioos:station:DISL:MHPA:1,2016-11-05T01:00:00Z,30.6671,-87.9365,-0.9,25.52,2 
DISL,ioos:station:DISL:MHPA:1,2016-11-05T01:30:00Z,30.6671,-87.9365,-0.9,25.46,2 
DISL,ioos:station:DISL:MHPA:1,2016-11-05T02:00:00Z,30.6671,-87.9365,-0.9,25.45,2 
DISL,ioos:station:DISL:MHPA:1,2016-11-05T02:30:00Z,30.6671,-87.9365,-0.9,25.36,2 
DISL,ioos:station:DISL:MHPA:1,2016-11-05T03:00:00Z,30.6671,-87.9365,-0.9,25.26,2 
DISL,ioos:station:DISL:MHPA:1,2016-11-05T03:30:00Z,30.6671,-87.9365,-0.9,25.17,2 
DISL,ioos:station:DISL:MHPA:1,2016-11-05T04:00:00Z,30.6671,-87.9365,-0.9,25.1,2 
DISL,ioos:station:DISL:MHPA:1,2016-11-05T04:30:00Z,30.6671,-87.9365,-0.9,25.08,2 
DISL,ioos:station:DISL:MHPA:1,2016-11-05T05:00:00Z,30.6671,-87.9365,-0.9,25.04,2 
DISL,ioos:station:DISL:MHPA:1,2016-11-05T05:30:00Z,30.6671,-87.9365,-0.9,24.87,2 
DISL,ioos:station:DISL:MHPA:1,2016-11-05T06:00:00Z,30.6671,-87.9365,-0.9,24.9,2 
DISL,ioos:station:DISL:MHPA:1,2016-11-05T06:30:00Z,30.6671,-87.9365,-0.9,24.87,2 
DISL,ioos:station:DISL:MHPA:1,2016-11-05T07:00:00Z,30.6671,-87.9365,-0.9,24.91,2 
DISL,ioos:station:DISL:MHPA:1,2016-11-05T07:30:00Z,30.6671,-87.9365,-0.9,24.82,2 
DISL,ioos:station:DISL:MHPA:1,2016-11-05T08:00:00Z,30.6671,-87.9365,-0.9,24.74,2 
DISL,ioos:station:DISL:MHPA:1,2016-11-05T08:30:00Z,30.6671,-87.9365,-0.9,24.62,2 
DISL,ioos:station:DISL:MHPA:1,2016-11-05T09:00:00Z,30.6671,-87.9365,-0.9,24.51,2 
DISL,ioos:station:DISL:MHPA:1,2016-11-05T09:30:00Z,30.6671,-87.9365,-0.9,24.47,2 
DISL,ioos:station:DISL:MHPA:1,2016-11-05T10:00:00Z,30.6671,-87.9365,-0.9,24.44,2 
DISL,ioos:station:DISL:MHPA:1,2016-11-05T10:30:00Z,30.6671,-87.9365,-0.9,24.32,2 
DISL,ioos:station:DISL:MHPA:1,2016-11-05T11:00:00Z,30.6671,-87.9365,-0.9,24.2,2 
DISL,ioos:station:DISL:MHPA:1,2016-11-05T11:30:00Z,30.6671,-87.9365,-0.9,24.18,2 
DISL,ioos:station:DISL:MHPA:1,2016-11-05T12:00:00Z,30.6671,-87.9365,-0.9,24.28,2 
DISL,ioos:station:DISL:MHPA:1,2016-11-05T12:30:00Z,30.6671,-87.9365,-0.9,24.19,2 
DISL,ioos:station:DISL:MHPA:1,2016-11-05T13:00:00Z,30.6671,-87.9365,-0.9,24.12,2 
DISL,ioos:station:DISL:MHPA:1,2016-11-05T13:30:00Z,30.6671,-87.9365,-0.9,24.08,2 
DISL,ioos:station:DISL:MHPA:1,2016-11-05T14:00:00Z,30.6671,-87.9365,-0.9,23.79,2 
DISL,ioos:station:DISL:MHPA:1,2016-11-05T14:30:00Z,30.6671,-87.9365,-0.9,23.82,2 
DISL,ioos:station:DISL:MHPA:1,2016-11-05T15:00:00Z,30.6671,-87.9365,-0.9,23.73,2 
DISL,ioos:station:DISL:MHPA:1,2016-11-05T15:30:00Z,30.6671,-87.9365,-0.9,23.78,2 
DISL,ioos:station:DISL:MHPA:1,2016-11-05T16:00:00Z,30.6671,-87.9365,-0.9,23.84,2 
DISL,ioos:station:DISL:MHPA:1,2016-11-05T16:30:00Z,30.6671,-87.9365,-0.9,23.87,2 
DISL,ioos:station:DISL:MHPA:1,2016-11-05T17:00:00Z,30.6671,-87.9365,-0.9,23.94,2 
DISL,ioos:station:DISL:MHPA:1,2016-11-05T17:30:00Z,30.6671,-87.9365,-0.9,24.15,2 
DISL,ioos:station:DISL:MHPA:1,2016-11-05T18:00:00Z,30.6671,-87.9365,-0.9,24.38,2 
DISL,ioos:station:DISL:MHPA:1,2016-11-05T18:30:00Z,30.6671,-87.9365,-0.9,24.14,2 
DISL,ioos:station:DISL:MHPA:1,2016-11-05T19:00:00Z,30.6671,-87.9365,-0.9,24.11,2 
DISL,ioos:station:DISL:MHPA:1,2016-11-05T19:30:00Z,30.6671,-87.9365,-0.9,24.2,2 
DISL,ioos:station:DISL:MHPA:1,2016-11-05T20:00:00Z,30.6671,-87.9365,-0.9,24.21,2 
DISL,ioos:station:DISL:MHPA:1,2016-11-05T20:30:00Z,30.6671,-87.9365,-0.9,24.41,2 
DISL,ioos:station:DISL:MHPA:1,2016-11-05T21:00:00Z,30.6671,-87.9365,-0.9,24.46,2 
DISL,ioos:station:DISL:MHPA:1,2016-11-05T21:30:00Z,30.6671,-87.9365,-0.9,24.45,2 
DISL,ioos:station:DISL:MHPA:1,2016-11-05T22:00:00Z,30.6671,-87.9365,-0.9,24.51,2 
DISL,ioos:station:DISL:MHPA:1,2016-11-05T22:30:00Z,30.6671,-87.9365,-0.9,24.48,2 
DISL,ioos:station:DISL:MHPA:1,2016-11-05T23:00:00Z,30.6671,-87.9365,-0.9,24.46,2 
DISL,ioos:station:DISL:MHPA:1,2016-11-05T23:30:00Z,30.6671,-87.9365,-0.9,24.38,2 
DISL,ioos:station:DISL:MHPA:1,2016-11-06T00:00:00Z,30.6671,-87.9365,-0.9,24.44,2 
DISL,ioos:station:DISL:MHPA:1,2016-11-06T00:30:00Z,30.6671,-87.9365,-0.9,24.33,2 
DISL,ioos:station:DISL:MHPA:1,2016-11-06T01:00:00Z,30.6671,-87.9365,-0.9,24.15,2 
DISL,ioos:station:DISL:MHPA:1,2016-11-06T01:30:00Z,30.6671,-87.9365,-0.9,24.24,2 
DISL,ioos:station:DISL:MHPA:1,2016-11-06T02:00:00Z,30.6671,-87.9365,-0.9,24.24,2 
DISL,ioos:station:DISL:MHPA:1,2016-11-06T02:30:00Z,30.6671,-87.9365,-0.9,24.37,2 
DISL,ioos:station:DISL:MHPA:1,2016-11-06T03:00:00Z,30.6671,-87.9365,-0.9,24.32,2 
DISL,ioos:station:DISL:MHPA:1,2016-11-06T03:30:00Z,30.6671,-87.9365,-0.9,24.55,2 
DISL,ioos:station:DISL:MHPA:1,2016-11-06T04:00:00Z,30.6671,-87.9365,-0.9,24.52,2 
DISL,ioos:station:DISL:MHPA:1,2016-11-06T04:30:00Z,30.6671,-87.9365,-0.9,24.43,2 
DISL,ioos:station:DISL:MHPA:1,2016-11-06T05:00:00Z,30.6671,-87.9365,-0.9,24.23,2 
DISL,ioos:station:DISL:MHPA:1,2016-11-06T05:30:00Z,30.6671,-87.9365,-0.9,24.05,2 
DISL,ioos:station:DISL:MHPA:1,2016-11-06T06:00:00Z,30.6671,-87.9365,-0.9,23.98,2 
DISL,ioos:station:DISL:MHPA:1,2016-11-06T06:30:00Z,30.6671,-87.9365,-0.9,23.94,2 
DISL,ioos:station:DISL:MHPA:1,2016-11-06T07:00:00Z,30.6671,-87.9365,-0.9,23.7,2 
DISL,ioos:station:DISL:MHPA:1,2016-11-06T07:30:00Z,30.6671,-87.9365,-0.9,23.51,2 
DISL,ioos:station:DISL:MHPA:1,2016-11-06T08:00:00Z,30.6671,-87.9365,-0.9,23.53,2 
DISL,ioos:station:DISL:MHPA:1,2016-11-06T08:30:00Z,30.6671,-87.9365,-0.9,23.5,2 
DISL,ioos:station:DISL:MHPA:1,2016-11-06T09:00:00Z,30.6671,-87.9365,-0.9,23.45,2 
DISL,ioos:station:DISL:MHPA:1,2016-11-06T09:30:00Z,30.6671,-87.9365,-0.9,23.41,2 
DISL,ioos:station:DISL:MHPA:1,2016-11-06T10:00:00Z,30.6671,-87.9365,-0.9,23.4,2 
DISL,ioos:station:DISL:MHPA:1,2016-11-06T10:30:00Z,30.6671,-87.9365,-0.9,23.45,2 
DISL,ioos:station:DISL:MHPA:1,2016-11-06T11:00:00Z,30.6671,-87.9365,-0.9,23.5,2 
DISL,ioos:station:DISL:MHPA:1,2016-11-06T11:30:00Z,30.6671,-87.9365,-0.9,23.42,2 
DISL,ioos:station:DISL:MHPA:1,2016-11-06T12:00:00Z,30.6671,-87.9365,-0.9,23.43,2 
DISL,ioos:station:DISL:MHPA:1,2016-11-06T12:30:00Z,30.6671,-87.9365,-0.9,23.42,2 
DISL,ioos:station:DISL:MHPA:1,2016-11-06T13:00:00Z,30.6671,-87.9365,-0.9,23.38,2 
DISL,ioos:station:DISL:MHPA:1,2016-11-06T13:30:00Z,30.6671,-87.9365,-0.9,23.2,2 
DISL,ioos:station:DISL:MHPA:1,2016-11-06T14:00:00Z,30.6671,-87.9365,-0.9,23.23,2 
DISL,ioos:station:DISL:MHPA:1,2016-11-06T14:30:00Z,30.6671,-87.9365,-0.9,22.8,2 
DISL,ioos:station:DISL:MHPA:1,2016-11-06T15:00:00Z,30.6671,-87.9365,-0.9,22.84,2 
DISL,ioos:station:DISL:MHPA:1,2016-11-06T15:30:00Z,30.6671,-87.9365,-0.9,22.86,2 
DISL,ioos:station:DISL:MHPA:1,2016-11-06T16:00:00Z,30.6671,-87.9365,-0.9,22.81,2 
DISL,ioos:station:DISL:MHPA:1,2016-11-06T16:30:00Z,30.6671,-87.9365,-0.9,22.85,2 
DISL,ioos:station:DISL:MHPA:1,2016-11-06T17:00:00Z,30.6671,-87.9365,-0.9,22.9,2 
DISL,ioos:station:DISL:MHPA:1,2016-11-06T17:30:00Z,30.6671,-87.9365,-0.9,22.9,2 
DISL,ioos:station:DISL:MHPA:1,2016-11-06T18:00:00Z,30.6671,-87.9365,-0.9,22.98,2 
DISL,ioos:station:DISL:MHPA:1,2016-11-06T18:30:00Z,30.6671,-87.9365,-0.9,23.0,2 
DISL,ioos:station:DISL:MHPA:1,2016-11-06T19:00:00Z,30.6671,-87.9365,-0.9,23.06,2 
DISL,ioos:station:DISL:MHPA:1,2016-11-06T19:30:00Z,30.6671,-87.9365,-0.9,23.07,2 
DISL,ioos:station:DISL:MHPA:1,2016-11-06T20:00:00Z,30.6671,-87.9365,-0.9,23.18,2 
DISL,ioos:station:DISL:MHPA:1,2016-11-06T20:30:00Z,30.6671,-87.9365,-0.9,23.21,2 
DISL,ioos:station:DISL:MHPA:1,2016-11-06T21:00:00Z,30.6671,-87.9365,-0.9,23.2,2 
DISL,ioos:station:DISL:MHPA:1,2016-11-06T21:30:00Z,30.6671,-87.9365,-0.9,23.18,2 
DISL,ioos:station:DISL:MHPA:1,2016-11-06T22:00:00Z,30.6671,-87.9365,-0.9,23.15,2 
DISL,ioos:station:DISL:MHPA:1,2016-11-06T22:30:00Z,30.6671,-87.9365,-0.9,23.15,2 
DISL,ioos:station:DISL:MHPA:1,2016-11-06T23:00:00Z,30.6671,-87.9365,-0.9,23.18,2 
DISL,ioos:station:DISL:MHPA:1,2016-11-06T23:30:00Z,30.6671,-87.9365,-0.9,23.13,2 
DISL,ioos:station:DISL:MHPA:1,2016-11-07T00:00:00Z,30.6671,-87.9365,-0.9,23.08,2 
DISL,ioos:station:DISL:MHPA:1,2016-11-07T00:30:00Z,30.6671,-87.9365,-0.9,22.95,2 
DISL,ioos:station:DISL:MHPA:1,2016-11-07T01:00:00Z,30.6671,-87.9365,-0.9,22.89,2 
DISL,ioos:station:DISL:MHPA:1,2016-11-07T01:30:00Z,30.6671,-87.9365,-0.9,23.04,2 
DISL,ioos:station:DISL:MHPA:1,2016-11-07T02:00:00Z,30.6671,-87.9365,-0.9,23.08,2 